| time (UTC) | temp C | wind direction | speed KPH | gust KPH | rain 1hr cm | rain 24hr cm | rain mn cm | humidity % | barometer mb |
| 20260507052148 | 5 | 98 | 0.0 | 0.0 | 0.00 | 0.00 | 0.00 | 97 | 1013.8 |
| 20260507051524 | 5 | 94 | 0.0 | 0.0 | 0.00 | 0.00 | 0.00 | 97 | 1013.8 |
| 20260507050911 | 5 | 102 | 0.0 | 0.0 | 0.00 | 0.00 | 0.00 | 96 | 1013.8 |
| 20260507050342 | 6 | 98 | 0.0 | 0.0 | 0.00 | 0.00 | 0.00 | 96 | 1013.8 |
| 20260507045750 | 6 | 98 | 0.0 | 0.0 | 0.00 | 0.00 | 0.00 | 95 | 1013.8 |
| 20260507045142 | 6 | 95 | 0.0 | 0.0 | 0.00 | 0.00 | 0.00 | 95 | 1013.8 |
| 20260507044539 | 6 | 100 | 0.0 | 0.0 | 0.00 | 0.00 | 0.00 | 95 | 1014.2 |
| 20260507043954 | 6 | 99 | 0.0 | 0.0 | 0.00 | 0.00 | 0.00 | 94 | 1014.2 |
| 20260507041541 | 7 | 99 | 0.0 | 0.0 | 0.00 | 0.00 | 0.00 | 91 | 1013.8 |
| 20260507040932 | 7 | 100 | 0.0 | 0.0 | 0.00 | 0.00 | 0.00 | 91 | 1013.8 |
| 20260507040332 | 7 | 96 | 0.0 | 0.0 | 0.00 | 0.00 | 0.00 | 91 | 1014.2 |
| 20260507035713 | 8 | 92 | 0.0 | 0.0 | 0.00 | 0.00 | 1.57 | 90 | 1013.8 |
| 20260507035145 | 8 | 104 | 0.0 | 0.0 | 0.00 | 0.00 | 1.57 | 89 | 1013.5 |
| 20260507034518 | 8 | 116 | 0.0 | 0.0 | 0.00 | 0.00 | 1.57 | 89 | 1013.8 |
| 20260507033911 | 9 | 90 | 0.0 | 0.0 | 0.00 | 0.00 | 1.57 | 87 | 1013.8 |
| 20260507033343 | 10 | 102 | 0.0 | 0.0 | 0.00 | 0.00 | 1.57 | 83 | 1014.2 |
| 20260507032121 | 10 | 122 | 0.0 | 0.0 | 0.00 | 0.00 | 1.57 | 74 | 1014.2 |
| 20260507030950 | 10 | 105 | 0.0 | 0.0 | 0.00 | 0.00 | 1.57 | 66 | 1014.2 |
| 20260507030351 | 10 | 115 | 0.0 | 0.0 | 0.00 | 0.00 | 1.57 | 66 | 1014.2 |
| 20260507025726 | 11 | 125 | 0.0 | 0.0 | 0.00 | 0.00 | 1.57 | 68 | 1014.2 |
| 20260507024540 | 11 | 86 | 0.0 | 0.0 | 0.00 | 0.00 | 1.57 | 69 | 1014.2 |
| 20260507023911 | 11 | 162 | 0.0 | 0.0 | 0.00 | 0.00 | 1.57 | 65 | 1014.2 |
| 20260507023354 | 11 | 130 | 0.0 | 0.0 | 0.00 | 0.00 | 1.57 | 64 | 1014.2 |
| 20260507022710 | 11 | 319 | 0.0 | 0.0 | 0.00 | 0.00 | 1.57 | 64 | 1013.8 |
| 20260507022117 | 11 | 133 | 0.0 | 0.0 | 0.00 | 0.00 | 1.57 | 63 | 1014.2 |
| 20260507021541 | 11 | 145 | 0.0 | 0.0 | 0.00 | 0.00 | 1.57 | 63 | 1013.8 |
| 20260507020939 | 11 | 133 | 0.0 | 0.0 | 0.00 | 0.00 | 1.57 | 65 | 1013.8 |
| 20260507020318 | 11 | 141 | 0.0 | 0.0 | 0.00 | 0.00 | 1.57 | 64 | 1013.8 |
| 20260507015728 | 11 | 283 | 1.6 | 1.6 | 0.00 | 0.00 | 1.57 | 62 | 1013.5 |
| 20260507015145 | 11 | 218 | 1.6 | 1.6 | 0.00 | 0.00 | 1.57 | 63 | 1013.5 |
| 20260507014513 | 12 | 237 | 3.2 | 3.2 | 0.00 | 0.00 | 1.57 | 62 | 1013.2 |
| 20260507013930 | 12 | 257 | 3.2 | 4.8 | 0.00 | 0.00 | 1.57 | 62 | 1013.2 |
| 20260507013354 | 12 | 215 | 0.0 | 0.0 | 0.00 | 0.00 | 1.57 | 62 | 1013.5 |
| 20260507012144 | 12 | 256 | 1.6 | 1.6 | 0.00 | 0.00 | 1.57 | 62 | 1013.5 |
| 20260507011532 | 12 | 131 | 0.0 | 0.0 | 0.00 | 0.00 | 1.57 | 61 | 1013.5 |
| 20260507010953 | 12 | 107 | 0.0 | 0.0 | 0.00 | 0.00 | 1.57 | 59 | 1013.2 |
| 20260507010329 | 12 | 80 | 1.6 | 1.6 | 0.00 | 0.00 | 1.57 | 59 | 1013.2 |
| 20260507005135 | 12 | 230 | 1.6 | 1.6 | 0.00 | 0.00 | 1.57 | 58 | 1013.2 |
| 20260507004543 | 12 | 58 | 1.6 | 1.6 | 0.00 | 0.00 | 1.57 | 58 | 1012.8 |
| 20260507003345 | 12 | 50 | 3.2 | 3.2 | 0.00 | 0.00 | 1.57 | 57 | 1012.8 |
| 20260507002729 | 12 | 116 | 0.0 | 1.6 | 0.00 | 0.00 | 1.57 | 56 | 1012.8 |
| 20260507001548 | 13 | 229 | 1.6 | 3.2 | 0.00 | 0.00 | 1.57 | 56 | 1012.5 |
| 20260507000314 | 13 | 118 | 0.0 | 1.6 | 0.00 | 0.00 | 1.57 | 55 | 1012.1 |
| 20260506235728 | 13 | 29 | 1.6 | 1.6 | 0.00 | 0.00 | 1.57 | 56 | 1012.1 |
| 20260506235133 | 13 | 247 | 3.2 | 3.2 | 0.00 | 0.00 | 1.57 | 57 | 1011.8 |
| 20260506234523 | 13 | 248 | 1.6 | 3.2 | 0.00 | 0.00 | 1.57 | 58 | 1011.8 |
| 20260506233939 | 13 | 43 | 3.2 | 3.2 | 0.00 | 0.00 | 1.57 | 56 | 1012.1 |
| 20260506233351 | 13 | 88 | 0.0 | 0.0 | 0.00 | 0.00 | 1.57 | 57 | 1012.1 |
| 20260506232743 | 13 | 28 | 3.2 | 4.8 | 0.00 | 0.00 | 1.57 | 55 | 1011.8 |
| 20260506232149 | 14 | 14 | 3.2 | 4.8 | 0.00 | 0.00 | 1.57 | 56 | 1011.8 |
| 20260506231525 | 14 | 161 | 3.2 | 4.8 | 0.00 | 0.00 | 1.57 | 54 | 1011.8 |
| 20260506230932 | 14 | 20 | 3.2 | 3.2 | 0.00 | 0.00 | 1.57 | 55 | 1012.1 |
| 20260506230329 | 14 | 48 | 1.6 | 3.2 | 0.00 | 0.00 | 1.57 | 55 | 1012.1 |
| 20260506225711 | 14 | 85 | 0.0 | 0.0 | 0.00 | 0.00 | 1.57 | 54 | 1012.5 |
| 20260506225110 | 14 | 119 | 1.6 | 1.6 | 0.00 | 0.00 | 1.57 | 54 | 1012.1 |
| 20260506224517 | 14 | 27 | 3.2 | 3.2 | 0.00 | 0.00 | 1.57 | 55 | 1012.1 |
| 20260506223932 | 14 | 159 | 1.6 | 1.6 | 0.00 | 0.00 | 1.57 | 54 | 1012.1 |
| 20260506223327 | 14 | 292 | 1.6 | 3.2 | 0.00 | 0.00 | 1.57 | 54 | 1012.5 |
| 20260506222722 | 15 | 112 | 0.0 | 1.6 | 0.00 | 0.00 | 1.57 | 54 | 1012.5 |
| 20260506222144 | 15 | 40 | 3.2 | 3.2 | 0.00 | 0.00 | 1.57 | 54 | 1012.5 |
| 20260506221515 | 15 | 128 | 0.0 | 1.6 | 0.00 | 0.00 | 1.57 | 55 | 1012.5 |
| 20260506220917 | 15 | 136 | 1.6 | 1.6 | 0.00 | 0.00 | 1.57 | 54 | 1012.1 |
| 20260506220343 | 15 | 25 | 4.8 | 4.8 | 0.00 | 0.00 | 1.57 | 50 | 1012.1 |
| 20260506215738 | 15 | 55 | 0.0 | 1.6 | 0.00 | 0.00 | 1.57 | 51 | 1011.8 |
| 20260506215141 | 15 | 68 | 3.2 | 3.2 | 0.00 | 0.00 | 1.57 | 49 | 1011.8 |
| 20260506214549 | 15 | 212 | 4.8 | 6.4 | 0.00 | 0.00 | 1.57 | 48 | 1011.8 |
| 20260506213317 | 15 | 10 | 3.2 | 4.8 | 0.00 | 0.00 | 1.57 | 48 | 1011.5 |
| 20260506212713 | 16 | 31 | 3.2 | 3.2 | 0.00 | 0.00 | 1.57 | 49 | 1011.5 |
| 20260506212127 | 16 | 92 | 3.2 | 3.2 | 0.00 | 0.00 | 1.57 | 48 | 1011.1 |
| 20260506210929 | 16 | 188 | 3.2 | 4.8 | 0.00 | 0.00 | 1.57 | 49 | 1011.5 |
| 20260506210347 | 16 | 30 | 3.2 | 3.2 | 0.00 | 0.00 | 1.57 | 47 | 1011.5 |
| 20260506204531 | 16 | 272 | 3.2 | 6.4 | 0.00 | 0.00 | 1.57 | 51 | 1011.1 |
| 20260506203311 | 16 | 36 | 1.6 | 1.6 | 0.00 | 0.00 | 1.57 | 50 | 1011.5 |
| 20260506202713 | 16 | 259 | 1.6 | 3.2 | 0.00 | 0.00 | 1.57 | 46 | 1011.5 |
| 20260506201533 | 17 | 339 | 3.2 | 4.8 | 0.00 | 0.00 | 1.57 | 40 | 1011.1 |
| 20260506200314 | 17 | 224 | 6.4 | 9.7 | 0.00 | 0.00 | 1.57 | 43 | 1011.1 |
| 20260506195752 | 17 | 359 | 3.2 | 4.8 | 0.00 | 0.00 | 1.57 | 44 | 1011.1 |
| 20260506194536 | 17 | 151 | 0.0 | 1.6 | 0.00 | 0.00 | 1.57 | 45 | 1010.8 |
| 20260506193953 | 17 | 11 | 1.6 | 6.4 | 0.00 | 0.00 | 1.57 | 47 | 1010.8 |
| 20260506193353 | 17 | 165 | 4.8 | 6.4 | 0.00 | 0.00 | 1.57 | 46 | 1011.1 |
| 20260506192743 | 16 | 60 | 3.2 | 6.4 | 0.00 | 0.00 | 1.57 | 50 | 1010.8 |
| 20260506192132 | 16 | 25 | 3.2 | 6.4 | 0.00 | 0.00 | 1.57 | 49 | 1011.1 |
| 20260506191543 | 16 | 16 | 4.8 | 4.8 | 0.00 | 0.00 | 1.57 | 49 | 1010.8 |
| 20260506190913 | 16 | 248 | 4.8 | 6.4 | 0.00 | 0.00 | 1.57 | 50 | 1010.8 |
| 20260506190340 | 15 | 162 | 3.2 | 3.2 | 0.00 | 0.00 | 1.57 | 57 | 1010.8 |
| 20260506185719 | 16 | 25 | 3.2 | 4.8 | 0.00 | 0.00 | 1.57 | 53 | 1011.1 |
| 20260506184536 | 16 | 97 | 1.6 | 1.6 | 0.00 | 0.00 | 1.57 | 55 | 1011.1 |
| 20260506183920 | 16 | 214 | 3.2 | 4.8 | 0.00 | 0.00 | 1.57 | 52 | 1011.1 |
| 20260506183330 | 16 | 18 | 4.8 | 6.4 | 0.00 | 0.00 | 1.57 | 55 | 1011.1 |
| 20260506182740 | 16 | 290 | 9.7 | 11.3 | 0.00 | 0.00 | 1.57 | 53 | 1011.1 |
| 20260506181541 | 15 | 330 | 4.8 | 4.8 | 0.00 | 0.00 | 1.57 | 56 | 1011.1 |
| 20260506180936 | 16 | 192 | 3.2 | 4.8 | 0.00 | 0.00 | 1.57 | 54 | 1011.1 |
| 20260506180354 | 15 | 325 | 4.8 | 4.8 | 0.00 | 0.00 | 1.57 | 58 | 1011.5 |
| 20260506175748 | 15 | 38 | 1.6 | 4.8 | 0.00 | 0.00 | 1.57 | 65 | 1010.8 |
| 20260506175127 | 15 | 159 | 3.2 | 4.8 | 0.00 | 0.00 | 1.57 | 64 | 1011.1 |
| 20260506174531 | 15 | 277 | 8.0 | 11.3 | 0.00 | 0.00 | 1.57 | 64 | 1011.5 |
| 20260506173943 | 15 | 76 | 0.0 | 0.0 | 0.00 | 0.00 | 1.57 | 62 | 1011.1 |
| 20260506173318 | 15 | 29 | 6.4 | 9.7 | 0.00 | 0.00 | 1.57 | 66 | 1011.1 |
| 20260506172712 | 15 | 202 | 4.8 | 6.4 | 0.00 | 0.00 | 1.57 | 66 | 1011.1 |
| 20260506172141 | 15 | 245 | 3.2 | 3.2 | 0.00 | 0.00 | 1.57 | 65 | 1011.1 |
| 20260506170953 | 13 | 24 | 6.4 | 6.4 | 0.00 | 0.00 | 1.57 | 70 | 1011.5 |
| 20260506170310 | 14 | 285 | 4.8 | 6.4 | 0.00 | 0.00 | 1.57 | 72 | 1011.5 |
| 20260506163946 | 13 | 23 | 3.2 | 4.8 | 0.00 | 0.00 | 1.57 | 71 | 1011.8 |
| 20260506163334 | 12 | 16 | 4.8 | 4.8 | 0.00 | 0.00 | 1.57 | 75 | 1011.1 |
| 20260506162749 | 12 | 8 | 3.2 | 4.8 | 0.00 | 0.00 | 1.57 | 75 | 1011.1 |
| 20260506162115 | 13 | 90 | 3.2 | 3.2 | 0.00 | 0.00 | 1.57 | 73 | 1011.1 |
| 20260506161546 | 12 | 41 | 0.0 | 0.0 | 0.00 | 0.00 | 1.57 | 74 | 1011.1 |
| 20260506160934 | 12 | 17 | 3.2 | 4.8 | 0.00 | 0.00 | 1.57 | 75 | 1011.1 |
| 20260506160351 | 12 | 23 | 1.6 | 3.2 | 0.00 | 0.00 | 1.57 | 77 | 1011.1 |
| 20260506155712 | 13 | 167 | 0.0 | 1.6 | 0.00 | 0.00 | 1.57 | 78 | 1011.5 |
| 20260506155128 | 12 | 32 | 1.6 | 3.2 | 0.00 | 0.00 | 1.57 | 79 | 1011.1 |
| 20260506154542 | 12 | 270 | 8.0 | 9.7 | 0.00 | 0.00 | 1.57 | 80 | 1011.5 |
| 20260506153930 | 12 | 268 | 6.4 | 9.7 | 0.00 | 0.00 | 1.57 | 80 | 1011.1 |
| 20260506153334 | 12 | 46 | 0.0 | 1.6 | 0.00 | 0.00 | 1.57 | 82 | 1011.1 |
| 20260506152733 | 11 | 56 | 1.6 | 3.2 | 0.00 | 0.00 | 1.57 | 82 | 1011.1 |
| 20260506151533 | 11 | 94 | 0.0 | 0.0 | 0.00 | 0.00 | 1.57 | 83 | 1010.8 |
| 20260506150933 | 11 | 171 | 3.2 | 3.2 | 0.00 | 0.00 | 1.57 | 86 | 1010.8 |
| 20260506150311 | 11 | 33 | 1.6 | 1.6 | 0.00 | 0.00 | 1.57 | 88 | 1010.8 |
| 20260506145750 | 11 | 79 | 0.0 | 0.0 | 0.00 | 0.00 | 1.57 | 90 | 1010.8 |
| 20260506145133 | 10 | 307 | 3.2 | 4.8 | 0.00 | 0.00 | 1.57 | 91 | 1010.1 |
| 20260506144538 | 10 | 14 | 4.8 | 4.8 | 0.00 | 0.00 | 1.57 | 92 | 1010.4 |
| 20260506143929 | 10 | 52 | 1.6 | 1.6 | 0.00 | 0.00 | 1.57 | 93 | 1010.4 |
| 20260506143317 | 10 | 93 | 1.6 | 1.6 | 0.00 | 0.00 | 1.57 | 93 | 1010.4 |
| 20260506142716 | 10 | 15 | 3.2 | 4.8 | 0.00 | 0.00 | 1.57 | 94 | 1010.4 |
| 20260506142117 | 9 | 26 | 3.2 | 3.2 | 0.00 | 0.00 | 1.57 | 95 | 1010.1 |
| 20260506141523 | 10 | 197 | 4.8 | 6.4 | 0.00 | 0.00 | 1.57 | 97 | 1010.4 |
| 20260506140935 | 9 | 68 | 0.0 | 0.0 | 0.00 | 0.00 | 1.57 | 96 | 1010.1 |
| 20260506140343 | 9 | 110 | 1.6 | 1.6 | 0.00 | 0.00 | 1.57 | 97 | 1010.1 |
| 20260506135734 | 10 | 84 | 1.6 | 1.6 | 0.00 | 0.00 | 1.57 | 98 | 1010.1 |
| 20260506135139 | 9 | 60 | 0.0 | 1.6 | 0.00 | 0.00 | 1.57 | 98 | 1010.1 |
| 20260506134512 | 9 | 61 | 1.6 | 1.6 | 0.00 | 0.00 | 1.57 | 99 | 1010.1 |
| 20260506133920 | 10 | 64 | 0.0 | 1.6 | 0.00 | 0.00 | 1.57 | 99 | 1009.8 |
| 20260506133350 | 9 | 94 | 0.0 | 0.0 | 0.00 | 0.00 | 1.57 | 99 | 1009.4 |
| 20260506132744 | 9 | 94 | 0.0 | 0.0 | 0.00 | 0.00 | 1.57 | 99 | 1009.4 |
| 20260506132120 | 9 | 70 | 1.6 | 1.6 | 0.00 | 0.00 | 1.57 | 99 | 1009.4 |
| 20260506131514 | 9 | 90 | 0.0 | 0.0 | 0.00 | 0.00 | 1.57 | 99 | 1009.4 |
| 20260506130920 | 8 | 130 | 0.0 | 0.0 | 0.00 | 0.00 | 1.57 | 99 | 1009.4 |
| 20260506125727 | 8 | 183 | 3.2 | 4.8 | 0.00 | 0.00 | 1.57 | 99 | 1009.1 |
| 20260506125146 | 8 | 84 | 3.2 | 4.8 | 0.00 | 0.00 | 1.57 | 99 | 1009.1 |
| 20260506124511 | 8 | 4 | 3.2 | 4.8 | 0.00 | 0.00 | 1.57 | 99 | 1009.4 |
| 20260506123932 | 9 | 347 | 4.8 | 4.8 | 0.00 | 0.00 | 1.57 | 99 | 1009.4 |
| 20260506123320 | 9 | 301 | 4.8 | 6.4 | 0.00 | 0.00 | 1.55 | 99 | 1009.4 |
| 20260506122715 | 9 | 90 | 1.6 | 1.6 | 0.00 | 0.00 | 1.55 | 99 | 1009.1 |
| 20260506122149 | 10 | 238 | 3.2 | 3.2 | 0.00 | 0.00 | 1.55 | 99 | 1008.8 |
| 20260506121518 | 10 | 70 | 0.0 | 0.0 | 0.00 | 0.00 | 1.55 | 99 | 1008.4 |
| 20260506120310 | 10 | 127 | 0.0 | 0.0 | 0.00 | 0.00 | 1.55 | 99 | 1008.1 |
| 20260506115715 | 10 | 225 | 3.2 | 3.2 | 0.00 | 0.00 | 1.55 | 99 | 1007.7 |
| 20260506115122 | 10 | 301 | 3.2 | 3.2 | 0.00 | 0.00 | 1.55 | 99 | 1007.7 |
| 20260506114533 | 10 | 47 | 1.6 | 1.6 | 0.00 | 0.00 | 1.55 | 99 | 1007.4 |
| 20260506113948 | 10 | 318 | 0.0 | 0.0 | 0.00 | 0.00 | 1.55 | 99 | 1007.4 |
| 20260506112733 | 10 | 82 | 0.0 | 0.0 | 0.00 | 0.00 | 1.55 | 99 | 1007.4 |
| 20260506111515 | 10 | 96 | 0.0 | 0.0 | 0.00 | 0.00 | 1.55 | 99 | 1007.4 |
| 20260506110913 | 10 | 44 | 3.2 | 3.2 | 0.00 | 0.00 | 1.52 | 99 | 1007.1 |
| 20260506105711 | 10 | 69 | 0.0 | 0.0 | 0.00 | 0.00 | 1.52 | 99 | 1007.1 |
| 20260506105146 | 10 | 235 | 1.6 | 1.6 | 0.00 | 0.00 | 1.52 | 99 | 1007.1 |
| 20260506103921 | 10 | 325 | 3.2 | 6.4 | 0.00 | 0.00 | 1.52 | 99 | 1006.7 |
| 20260506103351 | 11 | 353 | 8.0 | 9.7 | 0.00 | 0.00 | 1.50 | 99 | 1007.1 |
| 20260506102708 | 11 | 331 | 4.8 | 4.8 | 0.00 | 0.00 | 1.50 | 99 | 1006.7 |
| 20260506102109 | 11 | 255 | 1.6 | 3.2 | 0.00 | 0.00 | 1.50 | 99 | 1006.7 |
| 20260506100950 | 12 | 112 | 0.0 | 1.6 | 0.00 | 0.00 | 1.50 | 99 | 1006.0 |
| 20260506095711 | 12 | 64 | 1.6 | 3.2 | 0.00 | 0.00 | 1.45 | 99 | 1006.0 |
| 20260506095149 | 12 | 30 | 3.2 | 4.8 | 0.00 | 0.00 | 1.45 | 99 | 1006.0 |
| 20260506094538 | 13 | 317 | 3.2 | 4.8 | 0.00 | 0.00 | 1.45 | 99 | 1006.0 |
| 20260506093321 | 14 | 105 | 0.0 | 0.0 | 0.00 | 0.00 | 1.45 | 99 | 1005.7 |
| 20260506092747 | 14 | 117 | 0.0 | 0.0 | 0.00 | 0.00 | 1.45 | 99 | 1005.7 |
| 20260506092113 | 14 | 122 | 0.0 | 0.0 | 0.00 | 0.00 | 1.45 | 99 | 1005.7 |
| 20260506090323 | 14 | 180 | 3.2 | 3.2 | 0.00 | 0.00 | 1.42 | 99 | 1005.7 |
| 20260506085736 | 14 | 145 | 0.0 | 0.0 | 0.00 | 0.00 | 1.42 | 99 | 1005.7 |
| 20260506085114 | 14 | 62 | 0.0 | 1.6 | 0.00 | 0.00 | 1.42 | 99 | 1005.7 |
| 20260506083926 | 14 | 102 | 0.0 | 0.0 | 0.00 | 0.00 | 1.40 | 99 | 1006.0 |
| 20260506083337 | 14 | 145 | 1.6 | 1.6 | 0.00 | 0.00 | 1.32 | 99 | 1006.0 |
| 20260506082737 | 14 | 107 | 0.0 | 0.0 | 0.00 | 0.00 | 1.27 | 99 | 1005.7 |
| 20260506082142 | 14 | 141 | 0.0 | 1.6 | 0.00 | 0.00 | 1.22 | 99 | 1006.0 |
| 20260506081514 | 14 | 309 | 3.2 | 4.8 | 0.00 | 0.00 | 1.19 | 99 | 1006.0 |
| 20260506080930 | 14 | 103 | 1.6 | 1.6 | 0.00 | 0.00 | 1.17 | 99 | 1005.7 |
| 20260506080318 | 14 | 97 | 0.0 | 0.0 | 0.00 | 0.00 | 1.17 | 99 | 1005.7 |
| 20260506073309 | 14 | 119 | 0.0 | 0.0 | 0.00 | 0.00 | 0.94 | 99 | 1005.7 |
| 20260506072709 | 14 | 170 | 0.0 | 1.6 | 0.00 | 0.00 | 0.94 | 99 | 1005.7 |
| 20260506072143 | 14 | 168 | 0.0 | 1.6 | 0.00 | 0.00 | 0.91 | 99 | 1005.7 |
| 20260506071550 | 14 | 134 | 0.0 | 0.0 | 0.00 | 0.00 | 0.89 | 99 | 1005.7 |
| 20260506070907 | 14 | 41 | 1.6 | 1.6 | 0.00 | 0.00 | 0.81 | 99 | 1005.7 |
| 20260506070330 | 14 | 186 | 0.0 | 0.0 | 0.00 | 0.00 | 0.71 | 99 | 1006.0 |
| 20260506062127 | 14 | 113 | 0.0 | 0.0 | 0.00 | 0.00 | 0.36 | 99 | 1006.4 |
| 20260506061510 | 14 | 77 | 0.0 | 0.0 | 0.00 | 0.00 | 0.30 | 99 | 1006.4 |
| 20260506060342 | 14 | 114 | 0.0 | 0.0 | 0.00 | 0.00 | 0.20 | 99 | 1006.4 |